Weather History for Decorah, IA

Change the Weather History Date:

Monday, March 11, 2013

  Actual Average Record
Temperature  
Mean Temperature 28 °F -  
Max Temperature 32 °F 40 °F 64 °F (1990)
Min Temperature 24 °F 22 °F -2 °F (1979)
Degree Days  
Heating Degree Days 37    
Moisture  
Dew Point 27 °F    
Average Humidity 92    
Maximum Humidity 100    
Minimum Humidity 86    
Precipitation  
Precipitation 0.00 in - - ()
Sea Level Pressure  
Sea Level Pressure 29.69 in    
Wind  
Wind Speed 12 mph (NNW)    
Max Wind Speed 18 mph    
Max Gust Speed 24 mph    
Visibility 8 miles    
Events Rain , Snow    
Averages and records for this station are not official NWS values.
T = Trace of Precipitation, MM = Missing Value Source: NWS Daily Summary

Daily Weather History Graph

Daily Weather History Graph

Search for Another Location

Airport:

Trip Planner

Search our weather history database for the weather conditions in past years. The results will help you decide how hot, cold, wet, or windy it might be!

Date:

Astronomy

Mar. 11, 2013 Rise Set
Actual Time 7:25 AM CDT 7:08 PM CDT
Civil Twilight 6:57 AM CDT 7:37 PM CDT
Nautical Twilight 6:24 AM CDT 8:10 PM CDT
Astronomical Twilight 5:50 AM CDT 8:43 PM CDT
Moon 6:58 AM CDT (3/11) 7:23 PM CDT (3/11)
Length of Visible Light 12h 39m
Length of Day
11h 43m
Waning Crescent, 0% of the Moon is Illuminated
Mar 11
Waning Crescent
Mar 11
New
Mar 19
First Quarter
Mar 27
Full
Apr 2
Last Quarter

Hourly Weather History & Observations

Time (CDT) Temp. Windchill Dew Point Humidity Pressure Visibility Wind Dir Wind Speed Gust Speed Precip Events Conditions
12:15 AM 32.0 °F 22.1 °F 32.0 °F 100% 29.67 in 3.0 mi NNE 13.8 mph 24.2 mph N/A   Overcast
12:35 AM 32.0 °F 22.5 °F 32.0 °F 100% 29.68 in 1.8 mi North 12.7 mph 18.4 mph N/A   Overcast
12:55 AM 32.0 °F 23.6 °F 32.0 °F 100% 29.67 in 1.8 mi NNE 10.4 mph 17.3 mph N/A Snow Light Snow
1:15 AM 32.0 °F 22.5 °F 32.0 °F 100% 29.67 in 1.5 mi North 12.7 mph - N/A Snow Light Snow
1:35 AM 32.0 °F 23.0 °F 32.0 °F 100% 29.67 in 2.0 mi North 11.5 mph - N/A Snow Light Snow
1:55 AM 32.0 °F 23.0 °F 30.2 °F 93% 29.67 in 2.0 mi North 11.5 mph 17.3 mph N/A Snow Light Snow
2:15 AM 32.0 °F 23.6 °F 30.2 °F 93% 29.67 in 1.5 mi North 10.4 mph 16.1 mph N/A Snow Light Snow
2:35 AM 30.2 °F 20.2 °F 30.2 °F 100% 29.66 in 2.0 mi North 12.7 mph - N/A Snow Light Snow
2:55 AM 30.2 °F 20.8 °F 30.2 °F 100% 29.66 in 2.0 mi North 11.5 mph - N/A Snow Light Snow
3:15 AM 30.2 °F 20.8 °F 30.2 °F 100% 29.66 in 3.0 mi North 11.5 mph - N/A Snow Light Snow
3:35 AM 30.2 °F 19.8 °F 30.2 °F 100% 29.65 in 5.0 mi North 13.8 mph - N/A   Overcast
3:55 AM 30.2 °F 20.8 °F 28.4 °F 93% 29.65 in 7.0 mi North 11.5 mph - N/A Rain Light Freezing Rain
4:15 AM 30.2 °F 20.8 °F 28.4 °F 93% 29.64 in 10.0 mi North 11.5 mph - N/A Rain Light Freezing Rain
4:35 AM 30.2 °F 20.8 °F 28.4 °F 93% 29.64 in 10.0 mi North 11.5 mph - N/A Rain Light Freezing Rain
4:55 AM 30.2 °F 21.3 °F 28.4 °F 93% 29.64 in 7.0 mi North 10.4 mph - N/A Rain Light Freezing Rain
5:15 AM 30.2 °F 21.9 °F 28.4 °F 93% 29.64 in 10.0 mi North 9.2 mph - N/A   Overcast
5:35 AM 30.2 °F 21.3 °F 28.4 °F 93% 29.65 in 10.0 mi North 10.4 mph - N/A   Overcast
5:55 AM 30.2 °F 21.3 °F 28.4 °F 93% 29.64 in 10.0 mi North 10.4 mph - N/A   Overcast
6:15 AM 30.2 °F 21.3 °F 28.4 °F 93% 29.65 in 10.0 mi North 10.4 mph - N/A   Overcast
6:35 AM 30.2 °F 21.3 °F 28.4 °F 93% 29.65 in 10.0 mi North 10.4 mph - N/A   Overcast
6:55 AM 30.2 °F 21.9 °F 28.4 °F 93% 29.65 in 10.0 mi North 9.2 mph - N/A   Overcast
7:15 AM 30.2 °F 21.3 °F 26.6 °F 86% 29.66 in 10.0 mi North 10.4 mph - N/A   Overcast
7:35 AM 28.4 °F 19.7 °F 26.6 °F 93% 29.67 in 10.0 mi North 9.2 mph - N/A   Overcast
7:55 AM 28.4 °F 19.7 °F 26.6 °F 93% 29.67 in 10.0 mi North 9.2 mph - N/A   Overcast
8:15 AM 28.4 °F 19.7 °F 26.6 °F 93% 29.67 in 10.0 mi North 9.2 mph 15.0 mph N/A   Overcast
8:35 AM 28.4 °F 18.0 °F 26.6 °F 93% 29.66 in 10.0 mi North 12.7 mph - N/A   Overcast
8:55 AM 28.4 °F 19.7 °F 26.6 °F 93% 29.66 in 10.0 mi North 9.2 mph 15.0 mph N/A   Overcast
9:15 AM 28.4 °F 19.1 °F 26.6 °F 93% 29.66 in 10.0 mi NNW 10.4 mph - N/A   Overcast
9:35 AM 28.4 °F 19.1 °F 26.6 °F 93% 29.65 in 10.0 mi NNW 10.4 mph - N/A   Overcast
9:55 AM 28.4 °F 18.5 °F 26.6 °F 93% 29.66 in 10.0 mi NNW 11.5 mph - N/A   Overcast
10:15 AM 28.4 °F 18.5 °F 26.6 °F 93% 29.65 in 10.0 mi NNW 11.5 mph - N/A   Overcast
10:35 AM 28.4 °F 19.1 °F 26.6 °F 93% 29.65 in 9.0 mi NNW 10.4 mph - N/A Rain Light Freezing Rain
10:55 AM 28.4 °F 18.5 °F 26.6 °F 93% 29.65 in 4.0 mi NNW 11.5 mph - N/A   Overcast
11:15 AM 28.4 °F 17.5 °F 26.6 °F 93% 29.65 in 4.0 mi NNW 13.8 mph - N/A   Overcast
11:35 AM 28.4 °F 18.0 °F 26.6 °F 93% 29.65 in 2.0 mi NNW 12.7 mph 18.4 mph N/A   Overcast
11:55 AM 28.4 °F 17.0 °F 26.6 °F 93% 29.65 in 4.0 mi NNW 15.0 mph - N/A Rain Light Freezing Rain
12:15 PM 30.2 °F 20.8 °F 26.6 °F 86% 29.64 in 9.0 mi NNW 11.5 mph - N/A Rain Light Freezing Rain
12:35 PM 30.2 °F 19.3 °F 28.4 °F 93% 29.65 in 3.0 mi NW 15.0 mph - N/A   Overcast
12:55 PM 30.2 °F 19.3 °F 26.6 °F 86% 29.65 in 5.0 mi NNW 15.0 mph 21.9 mph N/A Rain Light Freezing Rain
1:15 PM 30.2 °F 19.8 °F 28.4 °F 93% 29.65 in 7.0 mi NNW 13.8 mph 20.7 mph N/A Rain Light Freezing Rain
1:35 PM 30.2 °F 19.3 °F 28.4 °F 93% 29.65 in 1.8 mi NW 15.0 mph 21.9 mph N/A Snow Light Snow
1:55 PM 30.2 °F 18.1 °F 26.6 °F 86% 29.65 in 2.0 mi NW 18.4 mph - N/A   Mostly Cloudy
2:15 PM 30.2 °F 19.8 °F 26.6 °F 86% 29.65 in 8.0 mi NW 13.8 mph 23.0 mph N/A Rain Light Freezing Rain
2:35 PM 30.2 °F 19.8 °F 26.6 °F 86% 29.65 in 10.0 mi NNW 13.8 mph 21.9 mph N/A Rain Light Freezing Rain
2:55 PM 30.2 °F 19.8 °F 26.6 °F 86% 29.66 in 10.0 mi NNW 13.8 mph 20.7 mph N/A   Overcast
3:15 PM 30.2 °F 20.2 °F 26.6 °F 86% 29.66 in 10.0 mi NNW 12.7 mph 21.9 mph N/A   Overcast
3:35 PM 30.2 °F 20.8 °F 26.6 °F 86% 29.66 in 10.0 mi NW 11.5 mph 18.4 mph N/A   Overcast
3:55 PM 30.2 °F 20.2 °F 26.6 °F 86% 29.67 in 10.0 mi NW 12.7 mph 19.6 mph N/A   Overcast
4:15 PM 28.4 °F 18.0 °F 26.6 °F 93% 29.67 in 10.0 mi NW 12.7 mph 19.6 mph N/A   Overcast
4:35 PM 30.2 °F 20.2 °F 26.6 °F 86% 29.68 in 10.0 mi NW 12.7 mph 20.7 mph N/A   Overcast
4:55 PM 28.4 °F 18.0 °F 26.6 °F 93% 29.68 in 10.0 mi NW 12.7 mph - N/A   Overcast
5:15 PM 28.4 °F 19.1 °F 26.6 °F 93% 29.69 in 10.0 mi NW 10.4 mph - N/A   Overcast
5:35 PM 28.4 °F 19.7 °F 26.6 °F 93% 29.70 in 10.0 mi WNW 9.2 mph 21.9 mph N/A   Overcast
6:15 PM 28.4 °F 18.5 °F 26.6 °F 93% 29.71 in 10.0 mi NW 11.5 mph 17.3 mph N/A   Overcast
6:35 PM 28.4 °F 19.7 °F 24.8 °F 86% 29.71 in 10.0 mi NW 9.2 mph - N/A   Overcast
6:55 PM 28.4 °F 19.1 °F 24.8 °F 86% 29.73 in 10.0 mi WNW 10.4 mph - N/A   Overcast
7:15 PM 28.4 °F 23.3 °F 24.8 °F 86% 29.73 in 10.0 mi WNW 4.6 mph 13.8 mph N/A   Overcast
7:35 PM 28.4 °F 19.7 °F 24.8 °F 86% 29.74 in 10.0 mi WNW 9.2 mph - N/A   Overcast
7:55 PM 28.4 °F 19.7 °F 24.8 °F 86% 29.75 in 10.0 mi WNW 9.2 mph - N/A   Overcast
8:15 PM 28.4 °F 20.4 °F 24.8 °F 86% 29.75 in 10.0 mi WNW 8.1 mph 16.1 mph N/A   Overcast
8:35 PM 28.4 °F 21.2 °F 24.8 °F 86% 29.76 in 10.0 mi Variable 6.9 mph 17.3 mph N/A   Overcast
8:55 PM 26.6 °F 17.5 °F 24.8 °F 93% 29.77 in 10.0 mi WNW 9.2 mph - N/A   Overcast
9:15 PM 26.6 °F 17.5 °F 24.8 °F 93% 29.78 in 10.0 mi WNW 9.2 mph 15.0 mph N/A   Overcast
9:35 PM 26.6 °F 17.5 °F 24.8 °F 93% 29.79 in 10.0 mi WNW 9.2 mph - N/A   Overcast
9:55 PM 26.6 °F 16.8 °F 23.0 °F 86% 29.80 in 10.0 mi WNW 10.4 mph 18.4 mph N/A   Overcast
10:15 PM 26.6 °F 16.8 °F 23.0 °F 86% 29.81 in 10.0 mi WNW 10.4 mph - N/A   Overcast
10:35 PM 26.6 °F 17.5 °F 23.0 °F 86% 29.82 in 10.0 mi WNW 9.2 mph - N/A   Overcast
10:55 PM 24.8 °F 16.1 °F 23.0 °F 93% 29.82 in 4.0 mi WNW 8.1 mph 15.0 mph N/A   Overcast
11:15 PM 24.8 °F 16.9 °F 23.0 °F 93% 29.82 in 2.5 mi WNW 6.9 mph - N/A Snow Light Snow
11:35 PM 24.8 °F 15.3 °F 23.0 °F 93% 29.82 in 5.0 mi WNW 9.2 mph - N/A   Overcast
11:55 PM 24.8 °F 16.9 °F 21.2 °F 86% 29.83 in - WNW 6.9 mph 13.8 mph N/A Rain Light Freezing Rain